Location: Breitenfeld
(46.8500°N, 15.6333°E)
Time: 01:27:34
(UTC+00:00)

Resurs 01 Rocket - Pass Details

Date: 09 April 2020
Orbit: 635 x 644 km, 98.0° (Epoch: 30 May)

Event Time Altitude Azimuth Distance (km) Brightness Sun altitude
Exits shadow 20:55:17 - 244° (WSW) 2,107 4.4 -28.7°
Reaches altitude 10° 20:55:48 10° 251° (WSW) 2,023 4.3 -28.7°
Maximum altitude 20:57:25 12° 272° (W) 1,910 4.5 -28.9°
Drops below altitude 10° 20:59:02 10° 294° (WNW) 2,031 4.9 -29.0°
Sets 21:02:45 0° 326° (NNW) 2,950 6.3 -29.4°
